Location: El Carrer d�Abaix
(41.5797°N, 2.1791°E)
Time: 20:44:06
(UTC+00:00)

Cosmos 1992 Rocket - Pass Details

Date: 06 June 2020
Orbit: 758 x 766 km, 74.0° (Epoch: 13 July)

Event Time Altitude Azimuth Distance (km) Brightness Sun altitude
Exits shadow 21:42:03 18° 204° (SSW) 1,781 5.6 -19.1°
Maximum altitude 21:45:54 79° 289° (WNW) 777 4.0 -19.5°
Drops below altitude 10° 21:51:08 10° 17° (NNE) 2,299 7.0 -20.0°
Sets 21:53:31 0° 19° (NNE) 3,229 7.9 -20.2°
